SCP
0 0 0 0 0 0 0 0 0 0 0 0 0 0 0 0 0 0 0 0 0 0 0 0 0 0 0 0 0 0 0 0 0 0 0 0 0 0
0 0 0 0 0 0 0 0 0 0 0 0 0 0 0 0 0 0 0 0 0 0 0 0 0 0 0 0 0 0 0 0 0 0 0 0 0 0
0 0 0 0 0 0 0 0 0 0 0 0 0 0 0 0 0 0 0 0 0 0 0 0 0 0 0 0 0 0 0 0 0 0 0 0 0 0
0 0 0 0 0 0 0 0 0 0 0 0 0 0 0 0 0 0 0 0 0 0 0 0 0 0 0 0 0 0 0 0 0 0 0 0 0 0
0 0 0 0 0 0 0 0 0 0 0 0 0 0 0 0 0 0 0 0 0 0 0 0 0 0 0 0 0 0 0 0 0 0 0 0 0 0
0 0 0 0 0 0 0 0 0 0 0 0 0 0 0 0 0 0 0 0 0 0 0 0 0 0 0 0 0 0 0 0 0 0 0 0 0 0
0 0 0 0 0 0 0 0 0 0 0 0 0 0 0 0 0 0 0 0 0 0 0 0 0 0 0 0 0 0 0 0 0 0 0 0 0 0
0 0 0 0 0 0 0 0 0 0 0 0 0 0 0 0 0 0 0 0 0 0 0 0 0 0 0 0 0 0 0 0 0 0 0 0 0 0
0 0 0 0 0 0 0 0 0 0 0 0 0 0 0 0 0 0 0 0 0 0 0 0 0 0 0 0 0 0 0 0 0 0 0 0 0 0
0 0 0 0 0 0 0 0 0 0 0 0 0 0 0 0 0 0 0 0 0 0 0 0 0 0 0 0 0 0 0 0 0 0 0 0 0 0
0 0 0 0 0 0 0 0 0 0 0 0 0 0 0 0 0 0 0 0 0 0 0 0 0 0 0 0 0 0 0 0 0 0 0 0 0 0
0 0 0 0 0 0 0 0 0 0 0 0 0 0 0 0 0 0 0 0 0 0 0 0 0 0 0 0 0 0 0 0 0 0 0 0 0 0
0 0 0 0 0 0 0 0 0 0 0 0 0 0 0 0 0 0 0 0 0 0 0 0 0 0 0 0 0 0 0 0 0 0 0 0 0 0
0 0 0 0 0 0 0 0 0 0 0 0 0 0 0 0 0 0 0 0 0 0 0 0 0 0 0 0 0 0 0 0 0 0 0 0 0 0
0 0 0 0 0 0 0 0 0 0 0 0 0 0 0 0 0 0 0 0 0 0 0 0 0 0 0 0 0 0 0 0 0 0 0 0 0 0
0 0 0 0 0 0 0 0 0 0 0 0 0 0 0 0 0 0 0 0 0 0 0 0 0 0 0 0 0 0 0 0 0 0 0 0 0 0
0 0 0 0 0 0 0 0 0 0 0 0 0 0 0 0 0 0 0 0 0 0 0 0 0 0 0 0 0 0 0 0 0 0 0 0 0 0
0 0 0 0 0 0 0 0 0 0 0 0 0 0 0 0 0 0 0 0 0 0 0 0 0 0 0 0 0 0 0 0 0 0 0 0 0 0
0 0 0 0 0 0 0 0 0 0 0 0 0 0 0 0 0 0 0 0 0 0 0 0 0 0 0 0 0 0 0 0 0 0 0 0 0 0
0 0 0 0 0 0 0 0 0 0 0 0 0 0 0 0 0 0 0 0 0 0 0 0 0 0 0 0 0 0 0 0 0 0 0 0 0 0
0 0 0 0 0 0 0 0 0 0 0 0 0 0 0 0 0 0 0 0 0 0 0 0 0 0 0 0 0 0 0 0 0 0 0 0 0 0
0 0 0 0 0 0 0 0 0 0 0 0 0 0 0 0 0 0 0 0 0 0 0 0 0 0 0 0 0 0 0 0 0 0 0 0 0 0
0 0 0 0 0 0 0 0 0 0 0 0 0 0 0 0 0 0 0 0 0 0 0 0 0 0 0 0 0 0 0 0 0 0 0 0 0 0
Wind_Speed_500mb
53 51 50 47 41 35 31 27 22 18 20 19 21 19 23 24 28 32 32 28 29 29 28 26 31 35 42 47 51 53 53 55 56 57 58 59 62 63
55 52 53 48 42 37 34 28 24 18 19 22 19 20 23 25 26 28 30 27 27 27 26 27 28 36 40 47 54 57 52 51 52 53 55 56 59 61
55 55 56 49 44 40 36 30 25 21 17 15 16 17 21 23 26 27 25 25 23 23 24 25 25 33 38 45 50 53 56 52 49 49 50 52 53 56
57 59 59 53 47 43 39 32 28 23 16 13 15 17 19 22 24 25 23 23 22 21 21 21 24 28 38 44 48 51 55 54 50 47 44 47 50 53
53 61 59 53 49 45 40 36 31 25 18 14 15 19 21 22 26 25 24 24 24 21 21 21 23 26 32 40 47 51 49 52 49 46 44 45 46 49
57 62 58 52 48 44 42 37 32 26 19 16 16 19 24 24 27 27 24 24 23 21 19 17 22 26 30 34 41 48 50 47 46 43 42 40 43 45
64 65 60 52 49 47 42 36 32 26 20 16 17 23 26 28 30 30 29 27 23 21 18 19 22 21 19 29 36 38 41 47 43 41 39 38 40 40
71 67 61 54 52 48 42 37 31 26 19 17 20 29 28 31 33 33 33 33 26 26 23 24 23 20 23 24 31 34 31 41 45 39 37 35 37 40
70 65 61 55 53 50 44 38 32 24 16 22 29 31 32 30 34 35 33 33 32 27 33 28 24 23 22 25 28 30 27 35 41 41 35 34 34 36
62 57 55 52 52 50 44 37 29 15 22 28 38 36 33 34 35 35 32 34 33 25 30 32 22 26 23 26 25 25 26 35 34 35 38 31 30 31
61 58 55 54 53 48 41 35 21 18 27 34 51 42 38 36 35 34 32 35 36 27 25 30 25 28 26 26 24 25 32 32 33 30 29 31 27 27
68 65 60 53 49 46 39 30 15 23 32 46 51 44 42 37 36 37 36 35 32 35 16 25 26 30 18 22 21 33 31 32 31 31 29 27 27 25
64 63 55 52 48 44 37 26 20 30 49 55 50 48 42 41 39 38 38 38 36 39 33 33 38 32 32 37 40 40 36 33 36 33 30 27 25 24
63 56 49 47 45 41 30 26 41 46 56 58 54 49 44 43 42 39 37 36 35 36 35 37 42 37 40 45 48 44 42 42 38 35 31 27 25 24
53 46 46 44 40 33 32 38 54 66 59 58 50 47 44 46 44 43 42 42 41 37 38 38 41 41 43 47 50 49 50 46 39 26 26 24 27 27
53 52 48 46 43 37 35 49 65 62 61 55 51 52 50 45 44 43 45 42 43 41 31 35 38 42 46 44 47 48 46 44 43 36 33 31 31 30
54 54 51 49 44 43 58 63 66 52 60 54 56 55 51 47 44 42 43 42 44 45 38 29 34 38 41 43 49 46 47 47 43 39 38 36 33 31
48 49 49 47 52 58 58 54 50 59 53 62 61 56 52 49 46 42 40 39 41 44 41 36 35 38 45 49 47 47 43 45 44 42 40 40 36 33
56 57 56 60 61 59 59 55 57 59 63 66 61 57 53 52 49 45 40 40 41 40 38 34 39 39 46 56 50 45 47 43 41 43 43 41 39 35
59 62 66 79 68 60 63 62 56 58 64 65 61 56 54 52 50 47 43 41 40 40 38 36 42 43 45 48 50 47 42 45 42 42 40 39 39 38
67 80 78 65 63 57 59 57 56 54 58 61 59 56 55 53 51 47 43 41 41 40 41 40 43 46 43 46 52 49 42 47 49 45 44 44 43 43
74 71 66 63 62 62 61 55 56 59 55 58 57 56 53 51 49 45 42 41 40 39 39 37 38 39 43 44 48 45 44 40 44 47 45 42 42 33
72 70 70 69 64 62 54 56 58 58 59 56 55 53 50 49 46 45 43 41 41 38 36 36 36 35 37 38 41 43 45 42 42 43 44 41 41 42
Wind_Direction_500mb
252 257 246 236 235 235 228 221 218 215 230 255 283 314 325 342 352 354 360 4 4 358 358 360 1 4 8 11 11 13 12 12 13 13 13 12 11 12
252 251 237 233 233 232 225 221 219 213 204 236 275 302 318 333 346 350 351 1 360 353 349 350 352 357 0 3 5 6 11 13 14 14 15 15 14 11
250 243 233 230 231 228 222 221 222 222 225 245 275 302 317 326 336 342 345 349 353 346 344 341 347 348 354 356 359 2 5 9 14 16 17 17 17 16
249 235 229 228 227 224 221 221 224 229 237 256 284 304 313 319 329 333 333 338 341 335 338 335 338 345 347 350 354 359 4 7 8 14 16 18 20 20
249 232 230 229 228 222 219 221 224 227 237 259 288 302 306 314 321 326 325 329 326 324 325 324 325 336 340 344 349 352 1 5 4 5 12 18 20 23
237 227 228 229 231 224 222 223 223 224 234 255 281 296 300 307 311 320 319 316 310 309 308 311 320 325 331 335 346 348 350 1 1 4 6 15 19 23
224 225 225 226 226 224 225 226 226 227 235 258 283 298 297 299 309 312 317 317 305 303 297 303 312 321 330 332 340 343 343 347 359 359 1 4 9 22
223 219 223 224 224 224 225 226 228 235 247 272 299 289 292 297 303 308 313 317 317 302 296 305 308 321 334 334 336 336 339 339 348 355 356 358 1 9
221 221 223 222 221 222 224 224 226 235 261 299 291 285 288 298 297 301 307 302 300 301 301 308 302 312 324 332 337 332 333 338 336 344 352 352 356 1
227 227 225 225 222 222 223 223 224 240 294 294 286 283 290 290 292 296 300 297 297 299 290 298 305 311 319 331 331 328 333 331 331 331 337 346 347 352
227 226 226 225 224 222 222 219 219 282 293 304 283 285 287 290 291 295 303 301 306 305 295 293 311 309 315 317 322 330 330 326 323 322 322 328 337 342
223 223 224 223 224 223 219 216 248 290 302 289 282 283 285 287 287 291 291 293 294 296 296 274 294 306 311 301 309 315 323 324 322 318 317 318 324 331
227 229 227 225 224 220 216 226 263 301 306 275 279 278 278 284 284 283 281 282 285 278 277 275 284 292 294 298 306 312 319 319 321 315 309 307 311 316
235 233 231 228 223 220 226 251 276 296 286 277 277 274 284 284 284 279 280 281 282 280 277 271 272 279 287 292 296 304 308 314 314 309 303 298 301 305
236 231 229 225 219 222 243 275 293 285 282 274 277 282 283 280 281 282 283 280 279 273 270 270 272 274 274 280 287 293 298 304 308 312 309 302 297 295
235 231 225 219 221 237 270 280 279 288 274 274 281 280 278 278 278 278 276 278 278 279 269 267 268 270 273 277 281 286 289 286 295 300 296 293 288 286
232 226 222 221 229 263 268 276 284 272 271 277 276 277 278 277 275 274 275 276 276 282 285 268 267 270 274 276 276 281 286 285 287 287 288 289 284 280
235 230 228 234 258 261 272 276 269 267 271 275 278 277 276 275 276 275 275 272 271 276 282 285 278 274 275 275 278 285 284 284 281 279 281 286 286 280
233 226 236 246 254 267 273 268 263 268 271 275 275 274 274 273 273 275 273 271 270 269 274 278 278 274 276 279 288 285 288 286 280 273 277 276 283 277
239 247 258 258 261 273 269 259 265 268 273 275 273 273 272 272 270 271 270 269 269 268 263 259 267 273 273 281 289 288 286 282 276 274 272 277 276 272
255 255 255 264 272 270 262 258 264 273 276 277 275 274 271 270 269 269 271 270 268 269 269 263 258 264 268 273 276 284 287 280 277 273 273 274 273 269
255 261 266 273 277 270 266 265 266 264 267 273 274 272 271 270 271 272 270 270 268 271 273 273 265 255 259 264 275 282 283 277 272 270 268 266 266 265
271 275 280 281 273 265 267 272 273 274 270 266 269 271 270 270 270 270 270 268 271 272 271 268 266 260 263 270 274 278 277 275 271 267 266 269 267 264
Wind_Speed_850mb
53 51 50 47 41 35 31 27 22 18 20 19 21 19 23 24 28 32 32 28 29 29 28 26 31 35 42 47 51 53 53 55 56 57 58 59 62 63
55 52 53 48 42 37 34 28 24 18 19 22 19 20 23 25 26 28 30 27 27 27 26 27 28 36 40 47 54 57 52 51 52 53 55 56 59 61
55 55 56 49 44 40 36 30 25 21 17 15 16 17 21 23 26 27 25 25 23 23 24 25 25 33 38 45 50 53 56 52 49 49 50 52 53 56
57 59 59 53 47 43 39 32 28 23 16 13 15 17 19 22 24 25 23 23 22 21 21 21 24 28 38 44 48 51 55 54 50 47 44 47 50 53
53 61 59 53 49 45 40 36 31 25 18 14 15 19 21 22 26 25 24 24 24 21 21 21 23 26 32 40 47 51 49 52 49 46 44 45 46 49
57 62 58 52 48 44 42 37 32 26 19 16 16 19 24 24 27 27 24 24 23 21 19 17 22 26 30 34 41 48 50 47 46 43 42 40 43 45
64 65 60 52 49 47 42 36 32 26 20 16 17 23 26 28 30 30 29 27 23 21 18 19 22 21 19 29 36 38 41 47 43 41 39 38 40 40
71 67 61 54 52 48 42 37 31 26 19 17 20 29 28 31 33 33 33 33 26 26 23 24 23 20 23 24 31 34 31 41 45 39 37 35 37 40
70 65 61 55 53 50 44 38 32 24 16 22 29 31 32 30 34 35 33 33 32 27 33 28 24 23 22 25 28 30 27 35 41 41 35 34 34 36
62 57 55 52 52 50 44 37 29 15 22 28 38 36 33 34 35 35 32 34 33 25 30 32 22 26 23 26 25 25 26 35 34 35 38 31 30 31
61 58 55 54 53 48 41 35 21 18 27 34 51 42 38 36 35 34 32 35 36 27 25 30 25 28 26 26 24 25 32 32 33 30 29 31 27 27
68 65 60 53 49 46 39 30 15 23 32 46 51 44 42 37 36 37 36 35 32 35 16 25 26 30 18 22 21 33 31 32 31 31 29 27 27 25
64 63 55 52 48 44 37 26 20 30 49 55 50 48 42 41 39 38 38 38 36 39 33 33 38 32 32 37 40 40 36 33 36 33 30 27 25 24
63 56 49 47 45 41 30 26 41 46 56 58 54 49 44 43 42 39 37 36 35 36 35 37 42 37 40 45 48 44 42 42 38 35 31 27 25 24
53 46 46 44 40 33 32 38 54 66 59 58 50 47 44 46 44 43 42 42 41 37 38 38 41 41 43 47 50 49 50 46 39 26 26 24 27 27
53 52 48 46 43 37 35 49 65 62 61 55 51 52 50 45 44 43 45 42 43 41 31 35 38 42 46 44 47 48 46 44 43 36 33 31 31 30
54 54 51 49 44 43 58 63 66 52 60 54 56 55 51 47 44 42 43 42 44 45 38 29 34 38 41 43 49 46 47 47 43 39 38 36 33 31
48 49 49 47 52 58 58 54 50 59 53 62 61 56 52 49 46 42 40 39 41 44 41 36 35 38 45 49 47 47 43 45 44 42 40 40 36 33
56 57 56 60 61 59 59 55 57 59 63 66 61 57 53 52 49 45 40 40 41 40 38 34 39 39 46 56 50 45 47 43 41 43 43 41 39 35
59 62 66 79 68 60 63 62 56 58 64 65 61 56 54 52 50 47 43 41 40 40 38 36 42 43 45 48 50 47 42 45 42 42 40 39 39 38
67 80 78 65 63 57 59 57 56 54 58 61 59 56 55 53 51 47 43 41 41 40 41 40 43 46 43 46 52 49 42 47 49 45 44 44 43 43
74 71 66 63 62 62 61 55 56 59 55 58 57 56 53 51 49 45 42 41 40 39 39 37 38 39 43 44 48 45 44 40 44 47 45 42 42 33
72 70 70 69 64 62 54 56 58 58 59 56 55 53 50 49 46 45 43 41 41 38 36 36 36 35 37 38 41 43 45 42 42 43 44 41 41 42
Wind_Direction_850mb
252 257 246 236 235 235 228 221 218 215 230 255 283 314 325 342 352 354 360 4 4 358 358 360 1 4 8 11 11 13 12 12 13 13 13 12 11 12
252 251 237 233 233 232 225 221 219 213 204 236 275 302 318 333 346 350 351 1 360 353 349 350 352 357 0 3 5 6 11 13 14 14 15 15 14 11
250 243 233 230 231 228 222 221 222 222 225 245 275 302 317 326 336 342 345 349 353 346 344 341 347 348 354 356 359 2 5 9 14 16 17 17 17 16
249 235 229 228 227 224 221 221 224 229 237 256 284 304 313 319 329 333 333 338 341 335 338 335 338 345 347 350 354 359 4 7 8 14 16 18 20 20
249 232 230 229 228 222 219 221 224 227 237 259 288 302 306 314 321 326 325 329 326 324 325 324 325 336 340 344 349 352 1 5 4 5 12 18 20 23
237 227 228 229 231 224 222 223 223 224 234 255 281 296 300 307 311 320 319 316 310 309 308 311 320 325 331 335 346 348 350 1 1 4 6 15 19 23
224 225 225 226 226 224 225 226 226 227 235 258 283 298 297 299 309 312 317 317 305 303 297 303 312 321 330 332 340 343 343 347 359 359 1 4 9 22
223 219 223 224 224 224 225 226 228 235 247 272 299 289 292 297 303 308 313 317 317 302 296 305 308 321 334 334 336 336 339 339 348 355 356 358 1 9
221 221 223 222 221 222 224 224 226 235 261 299 291 285 288 298 297 301 307 302 300 301 301 308 302 312 324 332 337 332 333 338 336 344 352 352 356 1
227 227 225 225 222 222 223 223 224 240 294 294 286 283 290 290 292 296 300 297 297 299 290 298 305 311 319 331 331 328 333 331 331 331 337 346 347 352
227 226 226 225 224 222 222 219 219 282 293 304 283 285 287 290 291 295 303 301 306 305 295 293 311 309 315 317 322 330 330 326 323 322 322 328 337 342
223 223 224 223 224 223 219 216 248 290 302 289 282 283 285 287 287 291 291 293 294 296 296 274 294 306 311 301 309 315 323 324 322 318 317 318 324 331
227 229 227 225 224 220 216 226 263 301 306 275 279 278 278 284 284 283 281 282 285 278 277 275 284 292 294 298 306 312 319 319 321 315 309 307 311 316
235 233 231 228 223 220 226 251 276 296 286 277 277 274 284 284 284 279 280 281 282 280 277 271 272 279 287 292 296 304 308 314 314 309 303 298 301 305
236 231 229 225 219 222 243 275 293 285 282 274 277 282 283 280 281 282 283 280 279 273 270 270 272 274 274 280 287 293 298 304 308 312 309 302 297 295
235 231 225 219 221 237 270 280 279 288 274 274 281 280 278 278 278 278 276 278 278 279 269 267 268 270 273 277 281 286 289 286 295 300 296 293 288 286
232 226 222 221 229 263 268 276 284 272 271 277 276 277 278 277 275 274 275 276 276 282 285 268 267 270 274 276 276 281 286 285 287 287 288 289 284 280
235 230 228 234 258 261 272 276 269 267 271 275 278 277 276 275 276 275 275 272 271 276 282 285 278 274 275 275 278 285 284 284 281 279 281 286 286 280
233 226 236 246 254 267 273 268 263 268 271 275 275 274 274 273 273 275 273 271 270 269 274 278 278 274 276 279 288 285 288 286 280 273 277 276 283 277
239 247 258 258 261 273 269 259 265 268 273 275 273 273 272 272 270 271 270 269 269 268 263 259 267 273 273 281 289 288 286 282 276 274 272 277 276 272
255 255 255 264 272 270 262 258 264 273 276 277 275 274 271 270 269 269 271 270 268 269 269 263 258 264 268 273 276 284 287 280 277 273 273 274 273 269
255 261 266 273 277 270 266 265 266 264 267 273 274 272 271 270 271 272 270 270 268 271 273 273 265 255 259 264 275 282 283 277 272 270 268 266 266 265
271 275 280 281 273 265 267 272 273 274 270 266 269 271 270 270 270 270 270 268 271 272 271 268 266 260 263 270 274 278 277 275 271 267 266 269 267 264